Regional Weather Roundup
Issued by NWS

Home | Current Version | Previous Version | Graphics & Text | Print | Product List | Glossary On
Versions: 1 2 3 4 5 6 7 8 9 10 11 12 13 14 15 16 17 18 19 20 21 22 23 24 25 26 27 28 29 30 31 32 33 34 35 36 37 38 39 40 41 42 43 44 45 46 47 48 49 50
000
ASUS45 KBOU 220707
RWRCO

WEATHER ROUNDUP FOR COLORADO
NATIONAL WEATHER SERVICE DENVER/BOULDER CO
100 AM MDT FRI AUG 22 2014

NOTE: "FAIR" INDICATES FEW OR NO CLOUDS BELOW 12000 FEET WITH NO
SIGNIFICANT WEATHER AND/OR OBSTRUCTIONS TO VISIBILITY.

COZ001>005-013-030-031-220800-
...NORTHWEST COLORADO...

CITY           SKY/WX    TMP DP  RH WIND       PRES   REMARKS
CRAIG          PTCLDY    53  49  86 E3        30.22S
HAYDEN         PTCLDY    54  45  71 E7        30.22F
MEEKER         MOCLDY    53  46  77 NE6       30.21F
MOUNT WERNER   NOT AVBL
STEAMBOAT SPGS MOCLDY    53  46  78 NW5       30.24F
WALDEN         CLOUDY    50  43  76 CALM      30.33S
$$

COZ006>008-011-220800-
...WEST CENTRAL VALLEYS...

CITY           SKY/WX    TMP DP  RH WIND       PRES   REMARKS
GRAND JUNCTION CLOUDY    64  51  62 E3        30.08S
MONTROSE       CLOUDY    64  48  56 S5        30.18S
EAGLE          MOCLDY    61  48  63 SE3       30.24S
RIFLE          CLOUDY    64  48  56 CALM      30.14S
DELTA          CLOUDY    70  47  42 NE5       30.13S
NUCLA          CLOUDY    64  45  48 SE8       30.21S
$$

COZ017>023-064>068-220800-
...SOUTHWEST COLORADO...

CITY           SKY/WX    TMP DP  RH WIND       PRES   REMARKS
DURANGO        CLOUDY    66  43  43 NW18      30.20F
CORTEZ         RAIN      60  54  80 SW14      30.25R
PAGOSA SPRINGS CLOUDY    57  42  56 CALM      30.27S
TELLURIDE      LGT RAIN  54  45  71 E5G16     30.41R
WOLF CREEK PAS NOT AVBL
$$

COZ009-010-012-014-032>034-037-058>063-220800-
...CENTRAL COLORADO...

CITY           SKY/WX    TMP DP  RH WIND       PRES   REMARKS
ASPEN          MOCLDY    54  41  61 S6        30.29S
BUENA VISTA    CLOUDY    60  40  47 NW8       30.30S
COPPER MTN     MOCLDY    46  32  57 S6        30.58F
BERTHOUD PASS  CLOUDY    41  39  93 MISG      30.63S
COTTONWOOD PAS CLOUDY    61  32  33 W6        30.43S
GUNNISON       CLOUDY    55  41  58 NE6       30.32F
KREMMLING      CLOUDY    54  46  76 CALM      30.30S
LEADVILLE      MOCLDY    45  37  73 CALM      30.43S
SALIDA         CLOUDY    65  39  38 SW5       30.34S
SUNLIGHT       CLOUDY    50  37  62 CALM      30.50F
WILKERSON PASS NOT AVBL
$$

COZ069>075-220800-
...SAN LUIS VALLEY/SANGRE DE CRISTO MOUNTAINS...

CITY           SKY/WX    TMP DP  RH WIND       PRES   REMARKS
ALAMOSA        CLOUDY    55  41  59 CALM      30.25S
LA VETA PASS   NOT AVBL
SAGUACHE       CLOUDY    63  37  39 NW16G22   30.28F
$$

COZ035-036-038>040-220800-
...NORTHERN COLORADO FRONT RANGE...

CITY           SKY/WX    TMP DP  RH WIND       PRES   REMARKS
DENVER INTL AP MOCLDY    65  53  65 NW6       30.15F
DMNS CITY PARK   N/A     66  54  65 NE3       30.15S
AURORA         MOCLDY    65  52  61 CALM      30.19R
FRONT RANGE AP NOT AVBL
ERIE MUNI ARPT MOCLDY    64  57  78 CALM      30.13F
BOULDER MUN AP MOCLDY    64  52  63 CALM      30.15R
CENTENNIAL     MOCLDY    62  54  74 E6        30.19R
BROOMFIELD     MOCLDY    66  50  55 SE3       30.18S
FORT COLLINS   CLOUDY    66  55  68 NE6       30.14F
LONGMONT       CLOUDY    65  58  78 W3        30.15S
$$

COZ041-046-047-076>085-087-088-220800-
...PIKES PEAK/PALMER DIVIDE AND SOUTHERN FOOTHILLS...

CITY           SKY/WX    TMP DP  RH WIND       PRES   REMARKS
COLO. SPRINGS  MOCLDY    68  50  52 N9        30.18F
A. F. ACADEMY  CLOUDY    62  49  60 N7        30.22S
ELLICOTT       CLOUDY    66  50  56 NE8       30.16F THUNDER
FALCON         MOCLDY    62  49  62 N12       30.24F
FORT CARSON    NOT AVBL
LIMON          PTCLDY    62  51  67 NW5       30.13F
MONUMENT HILL  LGT RAIN  55  52  88 W3        30.26R
TRINIDAD       CLEAR     61  48  62 W10       30.10F
$$

COZ042>045-048>051-090-091-220800-
...NORTHEAST COLORADO...

CITY           SKY/WX    TMP DP  RH WIND       PRES   REMARKS
GREELEY ARPT   CLOUDY    64  55  72 SE7       30.14F
AKRON          LGT RAIN  66  57  72 NW14      30.11R
BURLINGTON     PTCLDY    64  50  60 CALM      30.05S
WRAY             N/A     70  56  59 N5        30.04S
STERLING       MOCLDY    68  63  83 W9        30.08S
HOLYOKE        NOT AVBL
FORT MORGAN    MOCLDY    66  55  67 E3        30.10F
$$

COZ086-089-092>099-220800-
...SOUTHEAST COLORADO...

CITY           SKY/WX    TMP DP  RH WIND       PRES   REMARKS
PUEBLO         PTCLDY    72  52  49 N16       30.04F
LA JUNTA       MOCLDY    77  50  38 E6        29.99F
LAMAR          MOCLDY    72  63  73 E9        29.96F
SPRINGFIELD      N/A     65  54  67 NW3       30.03F
$$


USA.gov is the U.S. government's official web portal to all federal, state and local government web resources and services.